OE3MNS-13 Weather Reports


time (UTC)temp
F
wind
direction
speed
knots
gust
knots
rain 1hr
in
rain 24hr
in
rain mn
in
humidity
%
barometer
mb
20260507224020 57 270 2.6 11.3 0.00 0.00 0.00 66 1015.7
20260507223016 57 255 2.6 11.3 0.00 0.00 0.00 66 1015.5
20260507222018 57 289 2.6 6.1 0.00 0.00 0.00 65 1015.3
20260507221019 57 269 3.5 7.8 0.00 0.00 0.00 65 1015.2
20260507220022 57 260 3.5 7.0 0.00 0.00 0.00 64 1015.2
20260507215039 57 281 1.7 6.1 0.00 0.00 0.00 63 1015.2
20260507214042 57 272 2.6 7.0 0.00 0.00 0.00 63 1015.0
20260507213022 57 274 1.7 6.1 0.00 0.00 0.00 63 1015.1
20260507212022 57 230 0.9 5.2 0.00 0.00 0.00 65 1015.0
20260507211018 57 230 0.9 1.7 0.00 0.00 0.00 64 1015.1
20260507210041 58 240 0.0 0.9 0.00 0.00 0.00 63 1015.0
20260507205038 58 289 0.0 0.9 0.00 0.00 0.00 62 1015.0
20260507204017 59 223 0.9 2.6 0.00 0.00 0.00 61 1014.7
20260507203021 59 228 0.9 1.7 0.00 0.00 0.00 60 1014.5
20260507202020 59 218 1.7 7.0 0.00 0.00 0.00 60 1014.5
20260507201021 59 214 1.7 3.5 0.00 0.00 0.00 60 1014.4
20260507200019 60 223 0.9 6.1 0.00 0.00 0.00 60 1014.3
20260507195023 60 218 1.7 6.1 0.00 0.00 0.00 60 1014.3
20260507194020 60 225 1.7 6.1 0.00 0.00 0.00 59 1014.1
20260507193046 60 217 3.5 11.3 0.00 0.00 0.00 58 1014.1
20260507192038 60 225 3.5 9.6 0.00 0.00 0.00 58 1013.9
20260507191020 61 218 2.6 7.8 0.00 0.00 0.00 58 1013.9
20260507190021 61 240 2.6 7.0 0.00 0.00 0.00 57 1013.7
20260507185018 61 221 2.6 8.7 0.00 0.00 0.00 56 1013.5
20260507184020 61 217 2.6 7.0 0.00 0.00 0.00 55 1013.4
20260507183022 61 215 3.5 8.7 0.00 0.00 0.00 54 1013.3
20260507182022 62 214 1.7 6.1 0.00 0.00 0.00 54 1013.2
20260507181020 62 224 3.5 7.8 0.00 0.00 0.00 53 1013.1
20260507180021 62 222 3.5 11.3 0.00 0.00 0.00 52 1013.0
20260507175018 62 218 3.5 13.0 0.00 0.00 0.00 52 1012.9
20260507174017 62 218 3.5 8.7 0.00 0.00 0.00 52 1012.8
20260507173022 63 230 3.5 9.6 0.00 0.00 0.00 52 1012.8
20260507172021 63 234 1.7 6.1 0.00 0.00 0.00 51 1012.6
20260507171019 63 225 4.3 8.7 0.00 0.00 0.00 50 1012.4
20260507170021 63 215 5.2 12.2 0.00 0.00 0.00 49 1012.3
20260507165039 64 222 2.6 7.8 0.00 0.00 0.00 48 1012.3
20260507164021 64 202 2.6 7.0 0.00 0.00 0.00 47 1012.3
20260507163020 65 219 2.6 8.7 0.00 0.00 0.00 46 1012.1
20260507162020 65 228 3.5 12.2 0.00 0.00 0.00 45 1012.2
20260507161020 65 219 3.5 7.8 0.00 0.00 0.00 45 1012.0
20260507160018 65 224 2.6 7.0 0.00 0.00 0.00 44 1012.0
20260507155018 66 221 3.5 9.6 0.00 0.00 0.00 44 1011.9
20260507154017 66 222 1.7 6.1 0.00 0.00 0.00 44 1012.0
20260507153020 67 173 1.7 6.1 0.00 0.00 0.00 44 1011.6
20260507152022 67 173 1.7 5.2 0.00 0.00 0.00 44 1011.5
20260507151017 67 222 3.5 7.8 0.00 0.00 0.00 43 1011.6
20260507150020 67 218 2.6 8.7 0.00 0.00 0.00 43 1011.6
20260507145024 67 228 1.7 6.1 0.00 0.00 0.00 43 1011.5
20260507144018 68 226 1.7 5.2 0.00 0.00 0.00 43 1011.5
20260507143020 68 224 1.7 5.2 0.00 0.00 0.00 42 1011.5
20260507142019 68 230 3.5 9.6 0.00 0.00 0.00 40 1011.5
20260507141040 69 240 2.6 6.1 0.00 0.00 0.00 40 1011.6
20260507140017 69 232 0.9 3.5 0.00 0.00 0.00 40 1011.6
20260507135024 69 290 2.6 7.8 0.00 0.00 0.00 39 1011.5
20260507134020 70 310 1.7 6.1 0.00 0.00 0.00 40 1011.5
20260507133022 69 304 1.7 5.2 0.00 0.00 0.00 40 1011.5
20260507132022 69 290 0.9 2.6 0.00 0.00 0.00 38 1011.7
20260507131021 69 281 1.7 6.1 0.00 0.00 0.00 41 1011.9
20260507130024 68 283 1.7 5.2 0.00 0.00 0.00 41 1011.8
20260507125018 69 252 1.7 5.2 0.00 0.00 0.00 40 1011.9
20260507124020 69 326 2.6 7.0 0.00 0.00 0.00 41 1011.8
20260507123020 69 160 1.7 7.8 0.00 0.00 0.00 40 1011.9
20260507122021 70 359 0.9 2.6 0.00 0.00 0.00 39 1012.0
20260507121019 70 215 2.6 7.0 0.00 0.00 0.00 39 1012.1
20260507120019 70 230 3.5 9.6 0.00 0.00 0.00 40 1012.1
20260507114752 69 210 2.6 5.2 0.00 0.00 0.00 42 1012.0
20260507114522 69 258 2.6 7.8 0.00 0.00 0.00 42 1012.3
20260507113519 67 273 2.6 8.7 0.00 0.00 0.00 43 1012.4
20260507112520 67 244 2.6 7.8 0.00 0.00 0.00 43 1012.5
20260507111518 67 251 2.6 9.6 0.00 0.00 0.00 44 1012.5
20260507110519 66 237 2.6 8.7 0.00 0.00 0.00 46 1012.7
20260507105519 66 277 3.5 13.0 0.00 0.00 0.00 46 1012.6
20260507104422 65 305 3.5 9.6 0.00 0.00 0.00 46 1012.9
20260507104019 65 262 5.2 12.2 0.00 0.00 0.00 48 1012.7
20260507103023 65 228 4.3 13.9 0.00 0.00 0.00 47 1012.9
20260507102021 65 238 3.5 13.0 0.00 0.00 0.00 48 1013.0
20260507101021 64 280 3.5 13.9 0.00 0.00 0.00 50 1013.0
20260507100019 63 227 2.6 7.8 0.00 0.00 0.00 50 1013.0
20260507095042 63 279 4.3 16.5 0.00 0.00 0.00 51 1013.0
20260507094016 63 267 5.2 13.9 0.00 0.00 0.00 51 1013.0
20260507093019 63 248 3.5 13.0 0.00 0.00 0.00 51 1013.0
20260507092037 63 243 4.3 12.2 0.00 0.00 0.00 51 1012.8
20260507091018 62 254 4.3 13.0 0.00 0.00 0.00 51 1012.8
20260507090017 62 241 4.3 13.9 0.00 0.00 0.00 52 1012.8
20260507085021 63 256 4.3 13.9 0.00 0.00 0.00 53 1012.6
20260507084021 62 251 4.3 11.3 0.00 0.00 0.00 52 1012.5
20260507083018 61 256 4.3 13.9 0.00 0.00 0.00 54 1012.5
20260507082020 61 272 5.2 18.2 0.00 0.00 0.00 55 1012.4
20260507081020 60 276 6.1 19.1 0.00 0.00 0.00 56 1012.4
20260507080020 60 239 4.3 13.9 0.00 0.00 0.00 56 1012.3
20260507075038 59 253 5.2 16.5 0.00 0.00 0.00 57 1012.3
20260507074036 59 258 5.2 21.7 0.00 0.00 0.00 58 1012.2
20260507073042 59 269 6.1 13.9 0.00 0.00 0.00 58 1012.1
20260507072020 59 226 5.2 14.8 0.00 0.00 0.00 58 1011.9
20260507071023 59 258 5.2 13.9 0.00 0.00 0.00 58 1011.9
20260507070021 59 230 3.5 12.2 0.00 0.00 0.00 60 1011.8
20260507065023 58 247 5.2 18.2 0.00 0.00 0.00 61 1011.9
20260507064021 58 256 4.3 11.3 0.00 0.00 0.00 63 1012.0
20260507063021 57 272 3.5 12.2 0.00 0.00 0.00 64 1012.0
20260507062017 57 259 3.5 9.6 0.00 0.00 0.00 65 1011.8
20260507061021 56 251 3.5 13.0 0.00 0.00 0.00 65 1011.8
20260507060038 56 248 4.3 9.6 0.00 0.00 0.00 65 1011.7
20260507055020 56 245 3.5 12.2 0.00 0.00 0.00 65 1011.4
20260507054022 56 261 3.5 13.9 0.00 0.00 0.00 65 1011.5
20260507053021 56 263 3.5 7.8 0.00 0.00 0.00 66 1011.4
20260507052019 56 245 2.6 9.6 0.00 0.00 0.00 67 1011.4
20260507051017 56 233 2.6 8.7 0.00 0.00 0.00 67 1011.3
20260507050019 56 237 3.5 8.7 0.00 0.00 0.00 67 1011.2
20260507045017 56 256 2.6 9.6 0.00 0.00 0.00 67 1011.0
20260507044021 56 260 2.6 9.6 0.00 0.00 0.00 67 1011.0
20260507043024 56 254 3.5 12.2 0.00 0.00 0.00 66 1010.7
20260507042020 56 243 3.5 7.8 0.00 0.00 0.00 66 1010.7
20260507041042 56 249 2.6 7.8 0.00 0.00 0.00 67 1010.6
20260507040023 56 232 2.6 7.0 0.00 0.00 0.00 67 1010.6
20260507035021 56 243 1.7 7.0 0.00 0.00 0.00 67 1010.5
20260507034020 56 239 2.6 8.7 0.00 0.00 0.00 66 1010.4
20260507033022 56 242 3.5 13.9 0.00 0.00 0.00 66 1010.3
20260507032021 56 262 3.5 11.3 0.00 0.00 0.00 65 1010.1
20260507031018 56 256 3.5 12.2 0.00 0.00 0.00 64 1010.2
20260507030016 57 254 4.3 15.6 0.00 0.00 0.00 64 1010.1
20260507025020 57 261 4.3 12.2 0.00 0.00 0.00 63 1010.1
20260507024021 57 262 4.3 12.2 0.00 0.00 0.00 63 1009.9
20260507023023 57 258 3.5 13.0 0.00 0.00 0.00 64 1009.8
20260507022019 57 250 3.5 13.0 0.00 0.00 0.00 65 1009.9
20260507021021 57 263 3.5 11.3 0.00 0.00 0.00 65 1009.9
20260507020042 57 245 2.6 7.8 0.00 0.00 0.00 65 1009.8
20260507015021 57 254 3.5 12.2 0.00 0.00 0.00 66 1009.8
20260507014020 57 244 3.5 13.0 0.00 0.00 0.00 66 1009.8
20260507013020 57 277 2.6 13.0 0.00 0.00 0.00 66 1009.8
20260507012045 57 232 3.5 13.9 0.00 0.00 0.00 67 1009.6
20260507010022 58 253 1.7 9.6 0.00 0.00 0.00 68 1009.3
20260507005018 58 249 4.3 14.8 0.00 0.00 0.00 68 1009.2
20260507004023 58 249 4.3 12.2 0.00 0.00 0.00 68 1009.0
20260507003019 58 244 3.5 11.3 0.00 0.00 0.00 67 1009.2
20260507002020 59 259 4.3 14.8 0.00 0.00 0.00 67 1009.1
20260507001101 59 248 4.3 14.8 0.00 0.00 0.00 67 1009.0
20260507000018 59 237 5.2 14.8 0.00 0.00 0.00 67 1009.0
20260506235017 59 247 4.3 13.0 0.00 0.00 0.00 67 1008.8
20260506234039 59 244 6.1 15.6 0.00 0.00 0.00 67 1008.6
20260506233018 59 251 4.3 14.8 0.00 0.00 0.00 67 1008.4
20260506232039 60 220 6.1 13.0 0.00 0.00 0.00 67 1008.4
20260506231019 60 246 5.2 13.9 0.00 0.00 0.00 68 1008.2
20260506230022 60 236 5.2 19.1 0.00 0.00 0.00 70 1008.0
20260506225018 60 259 4.3 14.8 0.00 0.00 0.00 71 1007.8